Date String (YYYY-MM-DD hh:mm:ss) UTC,Instrument flags,Ambient pressure (hPa),Sample flow (lpm),Bypass flow (lpm),Sample temperature (°C),Ambient temperature (°C),ASC tube jacket temperature (°C),LED temperature (°C),Box temperature (°C),Sample RH (%),Span deviation,Mass concentration (μg/m³),Mass concentration (μg/m³),Mass concentration (μg/m³)
DateTimeUTC,F1_M11,P_M11,Q1_M11,Q2_M11,T1_M11,T2_M11,T3_M11,T4_M11,T5_M11,U1_M11,ZSPAN_M11,X0_M11,X2_M11,X1_M11
2021-09-27 15:00:00,,0826.8,5.00,0.00,30.3,29.1,00.0,39.2,32.0,15.2,0001.9,0022.85,0007.06,0005.15
2021-09-27 15:01:00,,0826.8,4.99,0.00,30.2,27.5,00.0,39.2,31.6,15.0,0002.0,0023.48,0007.11,0005.15
2021-09-27 15:02:00,,0826.8,5.00,0.00,30.0,26.6,00.0,39.2,31.3,15.2,0002.6,0024.61,0007.08,0005.15
2021-09-27 15:03:00,,0827.1,5.01,0.00,30.0,27.0,00.0,39.2,31.4,15.3,0003.0,0023.88,0007.01,0005.16
2021-09-27 15:04:00,,0826.8,5.00,0.00,29.9,27.4,00.0,39.1,31.5,15.6,0002.9,0022.66,0006.95,0005.16
2021-09-27 15:05:00,,0826.9,4.99,0.00,29.9,27.7,00.0,39.1,31.5,15.8,0002.9,0023.45,0006.98,0005.16
2021-09-27 15:06:00,,0826.9,4.99,0.00,29.9,28.0,00.0,39.1,31.6,15.8,0002.7,0024.85,0007.07,0005.16
2021-09-27 15:07:00,,0826.9,5.01,0.00,29.9,28.3,00.0,39.1,31.6,15.6,0002.6,0027.75,0007.15,0005.17
2021-09-27 15:08:00,,0827.0,4.99,0.00,30.0,28.5,00.0,39.1,31.7,15.5,0002.8,0030.55,0007.37,0005.21
2021-09-27 15:09:00,,0827.0,5.00,0.00,30.0,28.7,00.0,39.1,31.8,15.7,0002.5,0032.32,0007.50,0005.24
2021-09-27 15:10:00,,0826.9,4.99,0.00,30.0,28.8,00.0,39.1,31.8,15.8,0002.1,0034.91,0007.56,0005.26
2021-09-27 15:11:00,,0826.8,5.02,0.00,30.1,29.0,00.0,39.1,31.9,15.7,0001.8,0036.46,0007.60,0005.29
2021-09-27 15:12:00,,0826.9,5.00,0.00,30.1,29.1,00.0,39.1,31.9,15.5,0001.2,0038.28,0007.63,0005.31
2021-09-27 15:13:00,,0827.0,5.00,0.00,30.1,29.2,00.0,39.1,31.9,15.5,0001.4,0039.92,0007.85,0005.35
2021-09-27 15:14:00,,0826.9,5.00,0.00,30.2,29.2,00.0,39.1,32.0,15.4,0001.7,0042.44,0008.08,0005.37
2021-09-27 15:15:00,,0826.9,5.00,0.00,30.2,29.0,00.0,39.2,31.9,15.3,0002.1,0043.21,0008.14,0005.38
2021-09-27 15:16:00,,0826.9,4.99,0.00,30.1,27.2,00.0,39.1,31.5,15.1,0002.3,0042.20,0008.15,0005.39
2021-09-27 15:17:00,,0826.9,5.00,0.00,29.9,26.5,00.0,39.1,31.3,15.0,0002.5,0041.83,0008.18,0005.39
2021-09-27 15:18:00,,0827.1,5.01,0.00,29.9,26.8,00.0,39.1,31.3,15.0,0002.4,0039.18,0008.21,0005.42
2021-09-27 15:19:00,,0827.2,5.00,0.00,29.8,27.2,00.0,39.0,31.4,15.1,0002.8,0035.96,0008.11,0005.40
2021-09-27 15:20:00,,0827.4,5.00,0.00,29.8,27.6,00.0,39.0,31.4,15.5,0003.0,0034.14,0008.02,0005.39
2021-09-27 15:21:00,,0827.0,5.00,0.00,29.8,27.9,00.0,39.0,31.5,15.5,0002.7,0031.72,0007.94,0005.38
2021-09-27 15:22:00,,0827.0,5.01,0.00,29.9,28.2,00.0,39.0,31.6,15.0,0002.5,0031.31,0007.92,0005.38
2021-09-27 15:23:00,,0827.0,4.99,0.00,29.9,28.4,00.0,39.0,31.6,15.3,0002.9,0028.63,0007.83,0005.39
2021-09-27 15:24:00,,0827.0,4.99,0.00,29.9,28.6,00.0,39.0,31.7,15.4,0002.6,0025.49,0007.65,0005.40
2021-09-27 15:25:00,,0827.0,5.01,0.00,30.0,28.8,00.0,39.0,31.8,15.0,0002.5,0022.59,0007.49,0005.41
2021-09-27 15:26:00,,0827.0,4.99,0.00,30.0,28.9,00.0,39.0,31.8,14.6,0002.2,0022.16,0007.50,0005.45
2021-09-27 15:27:00,,0827.0,5.01,0.00,30.0,29.0,00.0,39.0,31.9,14.3,0002.1,0021.31,0007.52,0005.47
2021-09-27 15:28:00,,0827.0,4.99,0.00,30.1,29.1,00.0,39.0,31.9,14.3,0002.4,0020.22,0007.50,0005.51
2021-09-27 15:29:00,,0827.0,5.01,0.00,30.1,29.2,00.0,39.0,32.0,14.2,0002.6,0020.42,0007.47,0005.52
2021-09-27 15:30:00,,0827.0,4.99,0.00,30.1,28.8,00.0,39.1,31.9,14.1,0002.4,0020.71,0007.45,0005.56
2021-09-27 15:31:00,,0827.0,5.01,0.00,30.0,27.1,00.0,39.1,31.4,13.8,0002.5,0021.40,0007.41,0005.57
2021-09-27 15:32:00,,0827.0,4.99,0.00,29.9,26.4,00.0,39.0,31.2,14.0,0002.8,0020.60,0007.32,0005.57
2021-09-27 15:33:00,,0827.0,5.01,0.00,29.8,26.9,00.0,39.0,31.3,14.3,0003.2,0020.46,0007.26,0005.58
2021-09-27 15:34:00,,0826.9,5.00,0.00,29.8,27.3,00.0,39.0,31.4,14.1,0003.2,0021.18,0007.26,0005.57
2021-09-27 15:35:00,,0827.0,4.99,0.00,29.8,27.7,00.0,38.9,31.4,14.3,0003.3,0020.86,0007.19,0005.54
2021-09-27 15:36:00,,0827.0,5.00,0.00,29.8,28.0,00.0,38.9,31.5,14.6,0003.2,0020.72,0007.11,0005.51
2021-09-27 15:37:00,,0827.0,4.99,0.00,29.8,28.3,00.0,38.9,31.6,14.1,0003.2,0019.69,0006.98,0005.48
2021-09-27 15:38:00,,0827.0,5.01,0.00,29.9,28.5,00.0,38.9,31.6,13.8,0003.5,0019.33,0006.92,0005.44
2021-09-27 15:39:00,,0827.0,5.01,0.00,29.9,28.7,00.0,38.9,31.7,13.6,0003.3,0018.71,0006.81,0005.40
2021-09-27 15:40:00,,0827.0,4.99,0.00,29.9,28.8,00.0,38.9,31.8,12.9,0003.2,0018.07,0006.75,0005.36
2021-09-27 15:41:00,,0827.0,5.01,0.00,30.0,28.9,00.0,39.0,31.8,12.9,0003.4,0017.64,0006.69,0005.31
2021-09-27 15:42:00,,0827.0,4.99,0.00,30.0,28.9,00.0,39.0,31.8,13.2,0003.3,0017.32,0006.69,0005.28
2021-09-27 15:43:00,,0827.0,5.00,0.00,30.0,27.4,00.0,39.0,31.4,13.6,0003.3,0017.19,0006.67,0005.25
2021-09-27 15:44:00,,0827.0,5.00,0.00,29.8,26.3,00.0,38.9,31.0,12.9,0003.2,0015.47,0006.59,0005.21
2021-09-27 15:45:00,,0826.9,5.00,0.00,29.7,26.6,00.0,38.9,31.1,13.1,0002.8,0014.63,0006.53,0005.17
2021-09-27 15:46:00,,0827.1,5.00,0.00,29.7,27.0,00.0,38.9,31.2,12.7,0002.5,0015.11,0006.43,0005.13
2021-09-27 15:47:00,,0827.2,5.00,0.00,29.7,27.4,00.0,38.8,31.3,12.7,0002.0,0014.82,0006.38,0005.11
2021-09-27 15:48:00,,0827.1,4.98,0.00,29.7,27.8,00.0,38.8,31.4,13.1,0002.6,0014.93,0006.36,0005.09
2021-09-27 15:49:00,,0827.1,5.01,0.00,29.7,28.1,00.0,38.8,31.4,13.5,0002.7,0014.97,0006.38,0005.09
2021-09-27 15:50:00,,0827.1,4.99,0.00,29.8,28.3,00.0,38.8,31.5,13.6,0002.8,0015.91,0006.40,0005.10
2021-09-27 15:51:00,,0826.9,5.00,0.00,29.8,28.5,00.0,38.8,31.6,13.2,0003.3,0016.64,0006.42,0005.09
2021-09-27 15:52:00,,0827.0,5.00,0.00,29.8,28.7,00.0,38.8,31.7,13.4,0003.2,0016.74,0006.46,0005.09
2021-09-27 15:53:00,,0827.0,5.00,0.00,29.9,28.8,00.0,38.9,31.7,13.1,0002.9,0016.26,0006.44,0005.11
2021-09-27 15:54:00,,0827.0,5.00,0.00,29.9,29.0,00.0,38.9,31.7,13.5,0002.8,0016.18,0006.44,0005.13
2021-09-27 15:55:00,,0827.0,5.00,0.00,30.0,28.7,00.0,38.9,31.7,13.6,0002.2,0017.40,0006.46,0005.15
2021-09-27 15:56:00,,0827.0,5.00,0.00,29.9,27.0,00.0,38.9,31.2,14.3,0002.3,0018.13,0006.46,0005.16
2021-09-27 15:57:00,,0826.9,5.01,0.00,29.7,26.4,00.0,38.9,31.0,13.5,0002.2,0017.92,0006.47,0005.18
2021-09-27 15:58:00,,0827.0,5.00,0.00,29.7,26.8,00.0,38.8,31.1,14.4,0002.4,0017.80,0006.49,0005.21
2021-09-27 15:59:00,,0827.0,5.00,0.00,29.6,27.2,00.0,38.8,31.2,14.9,0001.9,0017.85,0006.52,0005.22
